Time,TemperatureF,DewpointF,PressureIn,WindDirection,WindDirectionDegrees,WindSpeedMPH,WindSpeedGustMPH,Humidity,HourlyPrecipIn,Conditions,Clouds,dailyrainin,SoftwareType,DateUTC
2015-07-07 00:03:00,78.6,74.4,29.83,South,185,7.0,7.0,87,0.00,,,0.00,Wunderground v.1.15,2015-07-07 05:03:00,
2015-07-07 00:08:00,78.5,74.3,29.82,SSW,202,7.0,15.0,87,0.00,,,0.00,Wunderground v.1.15,2015-07-07 05:08:00,
2015-07-07 00:14:00,78.4,74.2,29.82,SSW,192,7.0,10.0,87,0.00,,,0.00,Wunderground v.1.15,2015-07-07 05:14:00,
2015-07-07 00:21:00,78.4,74.5,29.82,South,175,7.0,7.0,88,0.00,,,0.00,Wunderground v.1.15,2015-07-07 05:21:00,
2015-07-07 00:27:00,78.4,74.5,29.82,SSW,195,6.0,8.0,88,0.00,,,0.00,Wunderground v.1.15,2015-07-07 05:27:00,
2015-07-07 00:32:00,78.3,74.5,29.82,SSW,198,6.0,12.0,88,0.00,,,0.00,Wunderground v.1.15,2015-07-07 05:32:00,
2015-07-07 00:38:00,78.3,74.5,29.82,South,178,7.0,12.0,88,0.00,,,0.00,Wunderground v.1.15,2015-07-07 05:38:00,
2015-07-07 00:45:00,78.3,74.5,29.82,South,190,8.0,10.0,88,0.00,,,0.00,Wunderground v.1.15,2015-07-07 05:45:00,
2015-07-07 00:51:00,78.3,74.5,29.82,South,188,8.0,9.0,88,0.00,,,0.00,Wunderground v.1.15,2015-07-07 05:51:00,
2015-07-07 00:57:00,78.2,74.4,29.82,SSW,195,8.0,13.0,88,0.00,,,0.00,Wunderground v.1.15,2015-07-07 05:57:00,
2015-07-07 01:03:00,78.1,74.3,29.82,South,179,7.0,10.0,88,0.00,,,0.00,Wunderground v.1.15,2015-07-07 06:03:00,
2015-07-07 01:09:00,78.1,74.3,29.82,South,181,6.0,11.0,88,0.00,,,0.00,Wunderground v.1.15,2015-07-07 06:09:00,
2015-07-07 01:15:00,78.0,74.5,29.82,South,169,7.0,10.0,89,0.00,,,0.00,Wunderground v.1.15,2015-07-07 06:15:00,
2015-07-07 01:21:00,77.9,74.4,29.82,SW,215,6.0,9.0,89,0.00,,,0.00,Wunderground v.1.15,2015-07-07 06:21:00,
2015-07-07 01:27:00,77.8,74.3,29.82,SW,225,7.0,10.0,89,0.00,,,0.00,Wunderground v.1.15,2015-07-07 06:27:00,
2015-07-07 01:33:00,77.8,74.3,29.83,SSE,154,7.0,7.0,89,0.00,,,0.00,Wunderground v.1.15,2015-07-07 06:33:00,
2015-07-07 01:39:00,77.8,74.3,29.83,South,184,6.0,9.0,89,0.00,,,0.00,Wunderground v.1.15,2015-07-07 06:39:00,
2015-07-07 01:44:00,77.8,74.6,29.83,SSW,196,6.0,7.0,90,0.00,,,0.00,Wunderground v.1.15,2015-07-07 06:44:00,
2015-07-07 01:49:00,77.7,74.5,29.83,SW,228,6.0,8.0,90,0.00,,,0.00,Wunderground v.1.15,2015-07-07 06:49:00,
2015-07-07 01:55:00,77.7,74.5,29.84,WSW,239,4.0,7.0,90,0.00,,,0.00,Wunderground v.1.15,2015-07-07 06:55:00,
2015-07-07 02:00:00,77.3,73.8,29.84,West,271,5.0,5.0,89,0.00,,,0.00,Wunderground v.1.15,2015-07-07 07:00:00,
2015-07-07 02:06:00,76.8,73.0,29.84,WSW,258,5.0,11.0,88,0.00,,,0.00,Wunderground v.1.15,2015-07-07 07:06:00,
2015-07-07 02:12:00,76.2,72.7,29.84,WSW,250,5.0,5.0,89,0.21,,,0.02,Wunderground v.1.15,2015-07-07 07:12:00,
2015-07-07 02:17:00,75.7,72.6,29.83,WSW,255,5.0,7.0,90,0.11,,,0.03,Wunderground v.1.15,2015-07-07 07:17:00,
2015-07-07 02:22:00,75.2,72.4,29.83,WSW,244,4.0,4.0,91,0.10,,,0.03,Wunderground v.1.15,2015-07-07 07:22:00,
2015-07-07 02:28:00,74.9,72.4,29.83,WSW,246,2.0,4.0,92,0.05,,,0.03,Wunderground v.1.15,2015-07-07 07:28:00,
2015-07-07 02:34:00,74.5,72.0,29.83,WSW,246,2.0,5.0,92,0.00,,,0.03,Wunderground v.1.15,2015-07-07 07:34:00,
2015-07-07 02:40:00,74.3,71.8,29.83,WSW,247,2.0,2.0,92,0.00,,,0.03,Wunderground v.1.15,2015-07-07 07:40:00,
2015-07-07 02:46:00,74.2,71.7,29.83,WSW,247,2.0,2.0,92,0.00,,,0.03,Wunderground v.1.15,2015-07-07 07:46:00,
2015-07-07 02:52:00,74.1,71.6,29.82,WSW,247,1.0,1.0,92,0.00,,,0.03,Wunderground v.1.15,2015-07-07 07:52:00,
2015-07-07 02:59:00,73.9,71.4,29.82,WSW,247,0.0,1.0,92,0.00,,,0.03,Wunderground v.1.15,2015-07-07 07:59:00,
2015-07-07 03:04:00,73.8,71.3,29.82,WSW,246,0.0,0.0,92,0.00,,,0.03,Wunderground v.1.15,2015-07-07 08:04:00,
2015-07-07 03:10:00,73.8,71.6,29.82,WSW,247,0.0,0.0,93,0.00,,,0.04,Wunderground v.1.15,2015-07-07 08:10:00,
2015-07-07 03:16:00,73.9,71.7,29.81,WSW,244,0.0,0.0,93,0.00,,,0.04,Wunderground v.1.15,2015-07-07 08:16:00,
2015-07-07 03:23:00,73.9,71.7,29.81,WSW,246,0.0,1.0,93,0.00,,,0.04,Wunderground v.1.15,2015-07-07 08:23:00,
2015-07-07 03:28:00,73.9,71.7,29.81,WSW,242,1.0,1.0,93,0.00,,,0.04,Wunderground v.1.15,2015-07-07 08:28:00,
2015-07-07 03:34:00,73.8,71.6,29.82,WSW,244,1.0,1.0,93,0.00,,,0.04,Wunderground v.1.15,2015-07-07 08:34:00,
2015-07-07 03:40:00,74.1,71.9,29.82,WSW,246,1.0,1.0,93,0.00,,,0.04,Wunderground v.1.15,2015-07-07 08:40:00,
2015-07-07 03:47:00,74.1,71.9,29.82,WSW,248,1.0,1.0,93,0.00,,,0.04,Wunderground v.1.15,2015-07-07 08:47:00,
2015-07-07 03:52:00,74.1,72.3,29.82,WSW,246,0.0,2.0,94,0.00,,,0.04,Wunderground v.1.15,2015-07-07 08:52:00,
2015-07-07 03:58:00,74.3,72.5,29.82,WSW,246,1.0,2.0,94,0.00,,,0.05,Wunderground v.1.15,2015-07-07 08:58:00,
2015-07-07 04:11:00,73.9,71.7,29.85,West,261,7.0,9.0,93,0.43,,,0.10,Wunderground v.1.15,2015-07-07 09:11:00,
2015-07-07 04:17:00,73.4,71.3,29.84,West,267,8.0,11.0,93,0.15,,,0.12,Wunderground v.1.15,2015-07-07 09:17:00,
2015-07-07 04:23:00,73.1,71.0,29.83,NW,307,6.0,7.0,93,0.14,,,0.13,Wunderground v.1.15,2015-07-07 09:23:00,
2015-07-07 04:29:00,72.9,71.1,29.83,WNW,289,4.0,7.0,94,0.09,,,0.14,Wunderground v.1.15,2015-07-07 09:29:00,
2015-07-07 04:35:00,72.6,70.8,29.83,WSW,258,3.0,5.0,94,0.06,,,0.14,Wunderground v.1.15,2015-07-07 09:35:00,
2015-07-07 04:40:00,72.5,70.7,29.83,West,269,4.0,5.0,94,0.04,,,0.14,Wunderground v.1.15,2015-07-07 09:40:00,
2015-07-07 04:45:00,72.3,70.5,29.83,West,277,4.0,8.0,94,0.00,,,0.14,Wunderground v.1.15,2015-07-07 09:45:00,
2015-07-07 04:51:00,72.3,70.5,29.83,West,277,4.0,6.0,94,0.00,,,0.14,Wunderground v.1.15,2015-07-07 09:51:00,
2015-07-07 04:57:00,72.0,70.2,29.83,West,274,5.0,7.0,94,0.32,,,0.16,Wunderground v.1.15,2015-07-07 09:57:00,
2015-07-07 05:03:00,71.9,70.1,29.83,West,278,3.0,4.0,94,0.21,,,0.18,Wunderground v.1.15,2015-07-07 10:03:00,
2015-07-07 05:09:00,71.8,70.0,29.83,West,276,2.0,5.0,94,0.13,,,0.19,Wunderground v.1.15,2015-07-07 10:09:00,
2015-07-07 05:15:00,71.5,69.7,29.83,West,271,2.0,5.0,94,0.15,,,0.21,Wunderground v.1.15,2015-07-07 10:15:00,
2015-07-07 05:21:00,71.5,70.0,29.83,West,276,2.0,3.0,95,0.07,,,0.21,Wunderground v.1.15,2015-07-07 10:21:00,
2015-07-07 05:27:00,71.6,70.1,29.83,West,280,1.0,3.0,95,0.06,,,0.22,Wunderground v.1.15,2015-07-07 10:27:00,
2015-07-07 05:33:00,71.5,70.0,29.83,WNW,283,0.0,1.0,95,0.07,,,0.23,Wunderground v.1.15,2015-07-07 10:33:00,
2015-07-07 05:39:00,71.3,69.5,29.83,West,279,0.0,1.0,94,0.07,,,0.23,Wunderground v.1.15,2015-07-07 10:39:00,
2015-07-07 05:45:00,71.2,69.4,29.83,West,273,1.0,2.0,94,0.05,,,0.23,Wunderground v.1.15,2015-07-07 10:45:00,
2015-07-07 05:51:00,71.4,69.9,29.83,West,279,0.0,0.0,95,0.00,,,0.23,Wunderground v.1.15,2015-07-07 10:51:00,
2015-07-07 05:57:00,71.4,69.9,29.83,West,277,0.0,0.0,95,0.00,,,0.24,Wunderground v.1.15,2015-07-07 10:57:00,
2015-07-07 06:04:00,71.3,69.8,29.83,West,275,0.0,0.0,95,0.00,,,0.24,Wunderground v.1.15,2015-07-07 11:04:00,
2015-07-07 06:09:00,71.2,69.7,29.83,West,275,0.0,0.0,95,0.04,,,0.25,Wunderground v.1.15,2015-07-07 11:09:00,
2015-07-07 06:15:00,71.2,69.7,29.83,West,277,0.0,0.0,95,0.04,,,0.25,Wunderground v.1.15,2015-07-07 11:15:00,
2015-07-07 06:28:00,71.2,69.7,29.83,West,277,0.0,0.0,95,0.00,,,0.25,Wunderground v.1.15,2015-07-07 11:28:00,
2015-07-07 06:33:00,71.2,69.7,29.83,West,277,0.0,0.0,95,0.00,,,0.25,Wunderground v.1.15,2015-07-07 11:33:00,
2015-07-07 06:39:00,71.2,69.7,29.83,West,279,0.0,0.0,95,0.00,,,0.26,Wunderground v.1.15,2015-07-07 11:39:00,
2015-07-07 06:46:00,71.2,69.7,29.84,West,277,0.0,1.0,95,0.00,,,0.26,Wunderground v.1.15,2015-07-07 11:46:00,
2015-07-07 06:52:00,71.3,69.8,29.84,West,277,1.0,2.0,95,0.00,,,0.26,Wunderground v.1.15,2015-07-07 11:52:00,
2015-07-07 06:58:00,71.4,69.9,29.84,West,278,1.0,2.0,95,0.00,,,0.26,Wunderground v.1.15,2015-07-07 11:58:00,
2015-07-07 07:04:00,71.6,70.1,29.84,West,277,1.0,1.0,95,0.00,,,0.27,Wunderground v.1.15,2015-07-07 12:04:00,
2015-07-07 07:10:00,71.6,70.1,29.85,West,279,1.0,3.0,95,0.00,,,0.27,Wunderground v.1.15,2015-07-07 12:10:00,
2015-07-07 07:16:00,71.8,70.6,29.85,West,271,1.0,2.0,96,0.00,,,0.27,Wunderground v.1.15,2015-07-07 12:16:00,
2015-07-07 07:22:00,72.0,70.5,29.85,West,277,1.0,2.0,95,0.00,,,0.27,Wunderground v.1.15,2015-07-07 12:22:00,
2015-07-07 07:27:00,71.7,70.2,29.85,West,273,1.0,3.0,95,0.00,,,0.27,Wunderground v.1.15,2015-07-07 12:27:00,
2015-07-07 07:34:00,71.8,70.6,29.85,West,278,2.0,2.0,96,0.00,,,0.28,Wunderground v.1.15,2015-07-07 12:34:00,
2015-07-07 07:40:00,72.0,70.5,29.85,West,280,1.0,2.0,95,0.00,,,0.28,Wunderground v.1.15,2015-07-07 12:40:00,
2015-07-07 07:46:00,72.1,70.6,29.85,West,279,1.0,2.0,95,0.00,,,0.28,Wunderground v.1.15,2015-07-07 12:46:00,
2015-07-07 07:51:00,72.3,71.1,29.85,West,278,1.0,2.0,96,0.00,,,0.29,Wunderground v.1.15,2015-07-07 12:51:00,
2015-07-07 07:58:00,72.1,70.6,29.86,West,277,1.0,2.0,95,0.00,,,0.29,Wunderground v.1.15,2015-07-07 12:58:00,
2015-07-07 08:04:00,72.2,70.7,29.86,West,279,1.0,1.0,95,0.00,,,0.29,Wunderground v.1.15,2015-07-07 13:04:00,
2015-07-07 08:10:00,72.8,71.6,29.86,West,281,1.0,2.0,96,0.00,,,0.29,Wunderground v.1.15,2015-07-07 13:10:00,
2015-07-07 08:15:00,72.8,71.3,29.86,West,275,1.0,3.0,95,0.00,,,0.29,Wunderground v.1.15,2015-07-07 13:15:00,
2015-07-07 08:20:00,72.8,71.3,29.86,West,281,1.0,1.0,95,0.73,,,0.33,Wunderground v.1.15,2015-07-07 13:20:00,
2015-07-07 08:26:00,72.8,71.3,29.86,West,274,1.0,3.0,95,0.27,,,0.36,Wunderground v.1.15,2015-07-07 13:26:00,
2015-07-07 08:32:00,72.1,70.3,29.87,WNW,289,3.0,17.0,94,0.10,,,0.37,Wunderground v.1.15,2015-07-07 13:32:00,
2015-07-07 08:44:00,70.3,68.5,29.88,NW,304,3.0,5.0,94,0.04,,,0.37,Wunderground v.1.15,2015-07-07 13:44:00,
2015-07-07 08:50:00,69.7,67.9,29.88,NW,314,4.0,4.0,94,0.00,,,0.37,Wunderground v.1.15,2015-07-07 13:50:00,
2015-07-07 08:56:00,69.1,67.3,29.88,NNW,334,6.0,6.0,94,0.00,,,0.37,Wunderground v.1.15,2015-07-07 13:56:00,
2015-07-07 09:02:00,68.8,67.3,29.89,North,357,5.0,7.0,95,0.00,,,0.37,Wunderground v.1.15,2015-07-07 14:02:00,
2015-07-07 09:09:00,68.5,66.7,29.88,NNW,329,4.0,7.0,94,0.00,,,0.37,Wunderground v.1.15,2015-07-07 14:09:00,
2015-07-07 09:14:00,68.3,66.8,29.88,NNW,331,3.0,5.0,95,0.00,,,0.37,Wunderground v.1.15,2015-07-07 14:14:00,
2015-07-07 09:20:00,68.1,66.3,29.88,NNW,333,4.0,4.0,94,0.00,,,0.37,Wunderground v.1.15,2015-07-07 14:20:00,
2015-07-07 09:26:00,67.8,66.0,29.88,NW,318,5.0,10.0,94,0.00,,,0.37,Wunderground v.1.15,2015-07-07 14:26:00,
2015-07-07 09:33:00,67.6,65.8,29.89,NNW,343,5.0,8.0,94,0.00,,,0.37,Wunderground v.1.15,2015-07-07 14:33:00,
2015-07-07 09:39:00,67.4,65.9,29.89,North,2,6.0,8.0,95,0.00,,,0.37,Wunderground v.1.15,2015-07-07 14:39:00,
2015-07-07 09:44:00,67.2,65.4,29.89,North,6,7.0,10.0,94,0.00,,,0.37,Wunderground v.1.15,2015-07-07 14:44:00,
2015-07-07 09:50:00,67.3,65.5,29.90,NNW,346,6.0,6.0,94,0.00,,,0.37,Wunderground v.1.15,2015-07-07 14:50:00,
2015-07-07 09:57:00,67.2,65.4,29.90,North,359,5.0,11.0,94,0.00,,,0.37,Wunderground v.1.15,2015-07-07 14:57:00,
2015-07-07 10:03:00,67.4,65.6,29.90,NNW,335,5.0,7.0,94,0.00,,,0.37,Wunderground v.1.15,2015-07-07 15:03:00,
2015-07-07 10:09:00,67.7,65.9,29.90,NW,305,4.0,10.0,94,0.00,,,0.37,Wunderground v.1.15,2015-07-07 15:09:00,
2015-07-07 10:15:00,67.9,66.1,29.90,West,267,3.0,3.0,94,0.00,,,0.37,Wunderground v.1.15,2015-07-07 15:15:00,
2015-07-07 10:21:00,67.9,66.1,29.90,WNW,294,3.0,3.0,94,0.00,,,0.37,Wunderground v.1.15,2015-07-07 15:21:00,
2015-07-07 10:27:00,67.7,65.9,29.91,WNW,287,4.0,8.0,94,0.00,,,0.37,Wunderground v.1.15,2015-07-07 15:27:00,
2015-07-07 10:32:00,67.6,65.5,29.91,NW,321,4.0,7.0,93,0.00,,,0.37,Wunderground v.1.15,2015-07-07 15:32:00,
2015-07-07 10:39:00,67.4,65.3,29.91,NW,311,6.0,8.0,93,0.00,,,0.37,Wunderground v.1.15,2015-07-07 15:39:00,
2015-07-07 10:45:00,67.1,65.0,29.92,West,279,4.0,6.0,93,0.00,,,0.37,Wunderground v.1.15,2015-07-07 15:45:00,
2015-07-07 10:51:00,67.0,64.9,29.92,NW,311,4.0,4.0,93,0.00,,,0.37,Wunderground v.1.15,2015-07-07 15:51:00,
2015-07-07 10:57:00,66.8,64.7,29.92,North,352,5.0,6.0,93,0.00,,,0.37,Wunderground v.1.15,2015-07-07 15:57:00,
2015-07-07 11:03:00,66.8,65.0,29.92,NNW,335,4.0,5.0,94,0.00,,,0.37,Wunderground v.1.15,2015-07-07 16:03:00,
2015-07-07 11:15:00,66.5,64.4,29.92,NNW,346,5.0,10.0,93,0.00,,,0.37,Wunderground v.1.15,2015-07-07 16:15:00,
2015-07-07 11:18:00,66.3,64.2,29.92,NNW,339,5.0,11.0,93,0.00,,,0.37,Wunderground v.1.15,2015-07-07 16:18:00,
2015-07-07 11:24:00,66.2,64.4,29.92,NNE,22,6.0,6.0,94,0.00,,,0.37,Wunderground v.1.15,2015-07-07 16:24:00,
2015-07-07 11:27:00,66.2,64.4,29.92,North,359,5.0,6.0,94,0.00,,,0.37,Wunderground v.1.15,2015-07-07 16:27:00,
2015-07-07 11:33:00,66.3,64.5,29.93,NNW,343,5.0,6.0,94,0.00,,,0.37,Wunderground v.1.15,2015-07-07 16:33:00,
2015-07-07 11:45:00,66.6,64.8,29.93,North,350,5.0,7.0,94,0.00,,,0.37,Wunderground v.1.15,2015-07-07 16:45:00,
2015-07-07 11:50:00,66.5,64.4,29.94,NNW,339,5.0,5.0,93,0.00,,,0.37,Wunderground v.1.15,2015-07-07 16:50:00,
2015-07-07 11:55:00,66.4,64.3,29.94,NNW,340,6.0,7.0,93,0.00,,,0.37,Wunderground v.1.15,2015-07-07 16:55:00,
2015-07-07 12:01:00,66.4,64.6,29.94,NNW,330,5.0,5.0,94,0.00,,,0.37,Wunderground v.1.15,2015-07-07 17:01:00,
2015-07-07 12:05:00,66.5,64.7,29.94,North,353,4.0,7.0,94,0.00,,,0.38,Wunderground v.1.15,2015-07-07 17:05:00,
2015-07-07 12:06:00,66.6,64.8,29.94,North,350,4.0,7.0,94,0.00,,,0.38,Wunderground v.1.15,2015-07-07 17:06:00,
2015-07-07 12:12:00,66.6,64.8,29.94,NNW,331,4.0,7.0,94,0.00,,,0.38,Wunderground v.1.15,2015-07-07 17:12:00,
2015-07-07 12:14:00,66.6,64.8,29.94,NNW,333,4.0,7.0,94,0.00,,,0.38,Wunderground v.1.15,2015-07-07 17:14:00,
2015-07-07 12:20:00,66.5,64.7,29.94,NW,316,5.0,8.0,94,0.04,,,0.39,Wunderground v.1.15,2015-07-07 17:20:00,
2015-07-07 12:25:00,66.6,65.1,29.94,NNW,343,5.0,9.0,95,0.04,,,0.39,Wunderground v.1.15,2015-07-07 17:25:00,
2015-07-07 12:32:00,66.8,65.3,29.94,North,357,4.0,4.0,95,0.04,,,0.39,Wunderground v.1.15,2015-07-07 17:32:00,
2015-07-07 12:34:00,66.9,65.4,29.95,NW,313,4.0,6.0,95,0.00,,,0.39,Wunderground v.1.15,2015-07-07 17:34:00,
2015-07-07 12:41:00,66.9,65.4,29.95,NNW,348,4.0,5.0,95,0.00,,,0.39,Wunderground v.1.15,2015-07-07 17:41:00,
2015-07-07 12:47:00,66.8,65.3,29.95,NW,313,4.0,9.0,95,0.00,,,0.40,Wunderground v.1.15,2015-07-07 17:47:00,
2015-07-07 12:53:00,66.7,64.9,29.95,NW,324,5.0,7.0,94,0.00,,,0.40,Wunderground v.1.15,2015-07-07 17:53:00,
2015-07-07 12:59:00,66.8,65.3,29.95,NNW,346,4.0,7.0,95,0.00,,,0.40,Wunderground v.1.15,2015-07-07 17:59:00,
2015-07-07 13:05:00,66.8,65.3,29.95,NNE,13,3.0,3.0,95,0.00,,,0.41,Wunderground v.1.15,2015-07-07 18:05:00,
2015-07-07 13:11:00,66.7,64.9,29.96,NNW,346,5.0,5.0,94,0.00,,,0.41,Wunderground v.1.15,2015-07-07 18:11:00,
2015-07-07 13:17:00,66.5,65.0,29.96,NNW,346,6.0,9.0,95,0.00,,,0.41,Wunderground v.1.15,2015-07-07 18:17:00,
2015-07-07 13:23:00,66.5,65.0,29.96,North,356,5.0,7.0,95,0.00,,,0.42,Wunderground v.1.15,2015-07-07 18:23:00,
2015-07-07 13:29:00,66.6,65.1,29.96,NNW,328,5.0,10.0,95,0.00,,,0.42,Wunderground v.1.15,2015-07-07 18:29:00,
2015-07-07 13:35:00,66.4,64.6,29.96,NNE,14,5.0,6.0,94,0.05,,,0.42,Wunderground v.1.15,2015-07-07 18:35:00,
2015-07-07 13:41:00,66.2,64.4,29.96,North,4,5.0,7.0,94,0.05,,,0.43,Wunderground v.1.15,2015-07-07 18:41:00,
2015-07-07 13:47:00,66.0,64.2,29.97,North,4,5.0,7.0,94,0.05,,,0.43,Wunderground v.1.15,2015-07-07 18:47:00,
2015-07-07 13:52:00,66.1,64.6,29.97,NNW,340,5.0,7.0,95,0.00,,,0.43,Wunderground v.1.15,2015-07-07 18:52:00,
2015-07-07 13:57:00,66.1,64.6,29.97,North,10,5.0,7.0,95,0.00,,,0.43,Wunderground v.1.15,2015-07-07 18:57:00,
2015-07-07 14:03:00,66.1,64.6,29.97,North,8,5.0,9.0,95,0.00,,,0.43,Wunderground v.1.15,2015-07-07 19:03:00,
2015-07-07 14:09:00,65.9,64.1,29.97,NNE,14,7.0,15.0,94,0.00,,,0.44,Wunderground v.1.15,2015-07-07 19:09:00,
2015-07-07 14:15:00,65.7,63.9,29.97,NNE,17,7.0,9.0,94,0.08,,,0.45,Wunderground v.1.15,2015-07-07 19:15:00,
2015-07-07 14:21:00,65.4,63.6,29.97,NE,52,6.0,7.0,94,0.08,,,0.45,Wunderground v.1.15,2015-07-07 19:21:00,
2015-07-07 14:27:00,65.2,63.4,29.97,North,7,6.0,11.0,94,0.05,,,0.45,Wunderground v.1.15,2015-07-07 19:27:00,
2015-07-07 14:33:00,64.9,63.1,29.97,North,9,7.0,10.0,94,0.00,,,0.45,Wunderground v.1.15,2015-07-07 19:33:00,
2015-07-07 14:39:00,64.9,63.1,29.97,NNE,17,7.0,10.0,94,0.00,,,0.45,Wunderground v.1.15,2015-07-07 19:39:00,
2015-07-07 14:51:00,64.9,63.1,29.98,NNE,23,5.0,10.0,94,0.00,,,0.45,Wunderground v.1.15,2015-07-07 19:51:00,
2015-07-07 14:57:00,65.1,63.3,29.98,NNE,13,5.0,10.0,94,0.00,,,0.45,Wunderground v.1.15,2015-07-07 19:57:00,
2015-07-07 15:03:00,65.2,63.1,29.98,NNE,20,5.0,7.0,93,0.00,,,0.45,Wunderground v.1.15,2015-07-07 20:03:00,
2015-07-07 15:09:00,65.1,63.0,29.98,SE,141,6.0,9.0,93,0.00,,,0.45,Wunderground v.1.15,2015-07-07 20:09:00,
2015-07-07 15:15:00,65.3,63.2,29.98,North,6,4.0,6.0,93,0.00,,,0.45,Wunderground v.1.15,2015-07-07 20:15:00,
2015-07-07 15:21:00,65.2,62.8,29.98,North,360,5.0,6.0,92,0.00,,,0.45,Wunderground v.1.15,2015-07-07 20:21:00,
2015-07-07 15:27:00,65.3,62.9,29.98,NNE,31,6.0,10.0,92,0.00,,,0.45,Wunderground v.1.15,2015-07-07 20:27:00,
2015-07-07 15:33:00,65.4,63.0,29.98,NE,44,5.0,9.0,92,0.00,,,0.45,Wunderground v.1.15,2015-07-07 20:33:00,
2015-07-07 15:40:00,65.6,62.9,29.98,NNE,22,6.0,9.0,91,0.00,,,0.45,Wunderground v.1.15,2015-07-07 20:40:00,
2015-07-07 15:51:00,66.0,63.0,29.98,SE,141,7.0,10.0,90,0.00,,,0.45,Wunderground v.1.15,2015-07-07 20:51:00,
2015-07-07 15:57:00,66.2,62.9,29.98,North,4,6.0,12.0,89,0.00,,,0.45,Wunderground v.1.15,2015-07-07 20:57:00,
2015-07-07 16:04:00,66.5,63.2,29.98,NE,45,5.0,6.0,89,0.00,,,0.45,Wunderground v.1.15,2015-07-07 21:04:00,
2015-07-07 16:09:00,66.6,62.9,29.99,NNE,21,5.0,9.0,88,0.00,,,0.45,Wunderground v.1.15,2015-07-07 21:09:00,
2015-07-07 16:15:00,66.8,63.1,29.98,NNE,18,5.0,6.0,88,0.00,,,0.45,Wunderground v.1.15,2015-07-07 21:15:00,
2015-07-07 16:22:00,66.9,63.2,29.99,NNE,33,5.0,5.0,88,0.00,,,0.45,Wunderground v.1.15,2015-07-07 21:22:00,
2015-07-07 16:28:00,66.8,62.8,29.99,NNE,21,5.0,9.0,87,0.00,,,0.45,Wunderground v.1.15,2015-07-07 21:28:00,
2015-07-07 16:33:00,66.8,62.5,29.99,NE,53,7.0,8.0,86,0.00,,,0.45,Wunderground v.1.15,2015-07-07 21:33:00,
2015-07-07 16:39:00,67.0,62.7,29.99,NNE,33,6.0,9.0,86,0.00,,,0.45,Wunderground v.1.15,2015-07-07 21:39:00,
2015-07-07 16:46:00,67.2,62.9,29.99,NNE,27,5.0,7.0,86,0.00,,,0.45,Wunderground v.1.15,2015-07-07 21:46:00,
2015-07-07 16:52:00,67.3,63.0,29.99,NNE,29,5.0,5.0,86,0.00,,,0.45,Wunderground v.1.15,2015-07-07 21:52:00,
2015-07-07 16:58:00,67.6,63.3,29.98,North,10,5.0,9.0,86,0.00,,,0.45,Wunderground v.1.15,2015-07-07 21:58:00,
2015-07-07 17:10:00,67.9,63.2,29.98,NNE,33,5.0,9.0,85,0.00,,,0.45,Wunderground v.1.15,2015-07-07 22:10:00,
2015-07-07 17:16:00,68.1,63.1,29.98,NNE,15,5.0,8.0,84,0.00,,,0.45,Wunderground v.1.15,2015-07-07 22:16:00,
2015-07-07 17:22:00,68.2,63.2,29.98,NNE,21,6.0,6.0,84,0.00,,,0.45,Wunderground v.1.15,2015-07-07 22:22:00,
2015-07-07 17:27:00,68.2,63.2,29.98,NNE,25,5.0,9.0,84,0.00,,,0.45,Wunderground v.1.15,2015-07-07 22:27:00,
2015-07-07 17:34:00,68.1,63.1,29.98,NE,37,6.0,6.0,84,0.00,,,0.45,Wunderground v.1.15,2015-07-07 22:34:00,
2015-07-07 17:40:00,68.3,63.3,29.98,North,8,4.0,6.0,84,0.00,,,0.45,Wunderground v.1.15,2015-07-07 22:40:00,
2015-07-07 17:46:00,68.3,63.3,29.98,NE,40,4.0,8.0,84,0.00,,,0.45,Wunderground v.1.15,2015-07-07 22:46:00,
2015-07-07 17:51:00,68.4,63.4,29.98,NNE,32,4.0,5.0,84,0.00,,,0.45,Wunderground v.1.15,2015-07-07 22:51:00,
2015-07-07 17:58:00,68.4,63.4,29.98,NNE,21,4.0,6.0,84,0.00,,,0.45,Wunderground v.1.15,2015-07-07 22:58:00,
2015-07-07 18:04:00,68.4,63.4,29.98,North,5,4.0,8.0,84,0.00,,,0.45,Wunderground v.1.15,2015-07-07 23:04:00,
2015-07-07 18:10:00,68.4,63.0,29.98,NNE,27,5.0,8.0,83,0.00,,,0.45,Wunderground v.1.15,2015-07-07 23:10:00,
2015-07-07 18:16:00,68.6,63.2,29.98,ENE,57,5.0,5.0,83,0.00,,,0.45,Wunderground v.1.15,2015-07-07 23:16:00,
2015-07-07 18:22:00,68.7,63.3,29.98,North,6,4.0,6.0,83,0.00,,,0.45,Wunderground v.1.15,2015-07-07 23:22:00,
2015-07-07 18:28:00,68.8,63.4,29.97,NE,35,5.0,9.0,83,0.00,,,0.45,Wunderground v.1.15,2015-07-07 23:28:00,
2015-07-07 18:34:00,68.7,63.3,29.98,NNE,12,4.0,7.0,83,0.00,,,0.45,Wunderground v.1.15,2015-07-07 23:34:00,
2015-07-07 18:39:00,68.7,63.3,29.98,NNE,27,4.0,7.0,83,0.00,,,0.45,Wunderground v.1.15,2015-07-07 23:39:00,
2015-07-07 18:44:00,68.7,63.3,29.98,North,1,4.0,4.0,83,0.00,,,0.45,Wunderground v.1.15,2015-07-07 23:44:00,
2015-07-07 18:50:00,68.8,63.4,29.98,NNE,33,4.0,9.0,83,0.00,,,0.45,Wunderground v.1.15,2015-07-07 23:50:00,
2015-07-07 18:56:00,68.8,63.4,29.98,NNE,18,4.0,9.0,83,0.00,,,0.45,Wunderground v.1.15,2015-07-07 23:56:00,
2015-07-07 19:02:00,68.8,63.4,29.99,NNE,23,3.0,4.0,83,0.00,,,0.45,Wunderground v.1.15,2015-07-08 00:02:00,
2015-07-07 19:08:00,68.7,63.3,29.99,SE,141,3.0,6.0,83,0.00,,,0.45,Wunderground v.1.15,2015-07-08 00:08:00,
2015-07-07 19:14:00,68.7,63.3,29.99,NNE,33,3.0,6.0,83,0.00,,,0.45,Wunderground v.1.15,2015-07-08 00:14:00,
2015-07-07 19:20:00,68.7,63.3,29.99,NNE,24,4.0,4.0,83,0.00,,,0.45,Wunderground v.1.15,2015-07-08 00:20:00,
2015-07-07 19:26:00,68.6,63.2,30.00,NNE,17,3.0,6.0,83,0.00,,,0.45,Wunderground v.1.15,2015-07-08 00:26:00,
2015-07-07 19:32:00,68.6,63.2,29.99,NNE,18,3.0,5.0,83,0.00,,,0.45,Wunderground v.1.15,2015-07-08 00:32:00,
2015-07-07 19:39:00,68.5,63.5,30.00,NNE,27,3.0,7.0,84,0.00,,,0.45,Wunderground v.1.15,2015-07-08 00:39:00,
2015-07-07 19:44:00,68.5,63.5,30.00,NNE,29,4.0,6.0,84,0.00,,,0.45,Wunderground v.1.15,2015-07-08 00:44:00,
2015-07-07 19:50:00,68.4,63.4,29.99,SE,141,4.0,5.0,84,0.00,,,0.45,Wunderground v.1.15,2015-07-08 00:50:00,
2015-07-07 19:56:00,68.3,63.3,29.99,NE,36,4.0,6.0,84,0.00,,,0.45,Wunderground v.1.15,2015-07-08 00:56:00,
2015-07-07 20:03:00,68.3,63.3,29.99,NE,37,4.0,7.0,84,0.00,,,0.45,Wunderground v.1.15,2015-07-08 01:03:00,
2015-07-07 20:08:00,68.2,63.2,29.99,NE,38,5.0,7.0,84,0.00,,,0.45,Wunderground v.1.15,2015-07-08 01:08:00,
2015-07-07 20:14:00,68.1,63.1,29.99,NE,44,5.0,7.0,84,0.00,,,0.45,Wunderground v.1.15,2015-07-08 01:14:00,
2015-07-07 20:20:00,68.1,63.1,29.99,NE,41,4.0,5.0,84,0.00,,,0.45,Wunderground v.1.15,2015-07-08 01:20:00,